Location: Foulognes
(49.1413°N, 0.8183°W)
Time: 12:47:41
(UTC+00:00)

Cosmos 2278 Rocket - Pass Details

Date: 21 October 2019
Orbit: 840 x 847 km, 71.0° (Epoch: 11 November)

Event Time Altitude Azimuth Distance (km) Brightness Sun altitude
Rises 18:37:31 0° 212° (SSW) 3,393 5.8 -16.2°
Reaches altitude 10° 18:39:58 10° 214° (SSW) 2,463 5.0 -16.6°
Maximum altitude 18:45:38 76° 300° (WNW) 878 2.4 -17.6°
Drops below altitude 10° 18:51:20 10° 26° (NNE) 2,481 4.4 -18.5°
Sets 18:53:48 0° 28° (NNE) 3,420 5.1 -18.9°
